Location: Bletchingley
(51.2333°N, 0.1000°W)
Time: 16:24:32
(UTC+00:00)

Cosmos 1833 Rocket - Pass Details

Date: 18 September 2020
Orbit: 831 x 841 km, 71.0° (Epoch: 30 October)

Event Time Altitude Azimuth Distance (km) Brightness Sun altitude
Rises 19:58:00 0° 331° (NNW) 3,407 6.8 -17.6°
Reaches altitude 10° 20:00:44 10° 342° (NNW) 2,470 5.7 -18.0°
Maximum altitude 20:05:47 32° 44° (NE) 1,424 3.7 -18.7°
Enters shadow 20:07:41 26° 79° (E) 1,615 3.7 -18.9°
